Weather Roundup
Issued by NWS Chicago, IL

Home | Current Version | Previous Version | Text Only | Print | Product List | Glossary On
Versions: 1 2 3 4 5 6 7 8 9 10 11 12 13 14 15 16 17 18 19 20 21 22 23 24 25 26 27 28 29 30 31 32 33 34 35 36 37 38 39 40 41 42 43 44 45 46 47 48 49 50
000
NZUS59 KLOT 261609
HRRLOT

CHICAGO AREA WEATHER ROUNDUP
NATIONAL WEATHER SERVICE CHICAGO/ROMEOVILLE IL
1100 AM CDT TUE JUL 26 2016

NOTE: "FAIR" INDICATES FEW OR NO CLOUDS BELOW 12,000 FEET WITH NO
SIGNIFICANT WEATHER AND/OR OBSTRUCTIONS TO VISIBILITY.

* THESE STATIONS ARE NOT UNDER NWS QUALITY CONTROL. THEY ALSO MAY NOT
  REPORT WEATHER SUCH AS PRECIPITATION OR FOG.

ILZ005-006-012>014-019>023-261700-
NORTHEAST ILLINOIS

CITY           SKY/WX    TMP DP  RH WIND       PRES   REMARKS
OHARE          MOSUNNY   82  61  48 S5        30.06S HX  83
MIDWAY         PTSUNNY   84  64  50 E6        30.06S HX  85
AURORA         SUNNY     83  66  56 S5        30.08R HX  85
LANSING*       MOSUNNY   82  63  52 SE5       30.07F HX  83
JOLIET*        SUNNY     83  68  59 S3        30.07S HX  86
WAUKEGAN       SUNNY     82  62  50 E6        30.07R HX  83
DUPAGE AIRPORT MOSUNNY   83  64  52 CALM      30.07S HX  84
WHEELING       SUNNY     83  61  47 NE5       30.08R HX  83
KANKAKEE*      MOSUNNY   81  68  64 SE5       30.08S HX  84
MORRIS*        MOSUNNY   81  67  61 CALM      30.06S HX  84
LEWIS AIRPORT* SUNNY     82  64  54 SE5       30.07S HX  83
NORTHERLY ISL    N/A     78  69  73 E2          N/A  HX  80
$$

WIZ051-052-058>065-066-070>072-261700-
SOUTHEAST WISCONSIN

CITY           SKY/WX    TMP DP  RH WIND       PRES   REMARKS
MILWAUKEE      MOSUNNY   83  60  45 E6        30.07S HX  83
KENOSHA*       MOSUNNY   83  64  52 CALM      30.08S HX  84
RACINE*        SUNNY     83  61  47 E6        30.09S HX  83
BURLINGTON     SUNNY     82  62  49 SE5       30.08S HX  83
WAUKESHA       SUNNY     81  59  47 E3        30.09S HX  81
$$

INZ001>003-010>013-019-020-261700-
NORTHWEST INDIANA

CITY           SKY/WX    TMP DP  RH WIND       PRES   REMARKS
GARY*          PTSUNNY   82  70  65 CALM        N/A  HX  86
MICHIGAN CITY* NOT AVBL
RENSSELAER*    NOT AVBL
VALPARAISO     MOSUNNY   83  65  54 E7        30.08S HX  85
$$

LMZ740>746-261700-
SOUTHERN LAKE MICHIGAN

STATION/POSITION TIME  SKY/WX   TEMP WIND        PRES    VSBY
                                AIR  DIR/SP/G
                 (UTC)          (F)  (DEG/KT/KT) (MB)    (MI)
HARRISON CRIB    1500            76   50/  2/  2   N/A
BURNHAM HARBOR   1600            78   70/  3/  3   N/A
CALUMET HARBOR   1500            77   50/  4/  5 1017.7R
BURNS HARBOR     1500            75  360/  4/  6 1018.6S
MICHIGAN CITY    1500            75  360/  7/  8   N/A
$$

ABBREVIATIONS USED IN REMARKS
   TC - TEMPERATURE IN CELSIUS
  WCI - WIND CHILL INDEX
   HX - HEAT INDEX
  VSB - VISIBILITY
$$




USA.gov is the U.S. government's official web portal to all federal, state and local government web resources and services.